This is the latest recevied weather packets stored in our database for station/object K5NWZ. If no packets are shown the sender has not sent any weather packets the latest 10 day(s).
| Time | Temp. | Humidity | Pressure | Rain* | Wind** | Luminosity | Snow |
|---|---|---|---|---|---|---|---|
| 1787437238 | 27.78° C | 49% | 1030.9 hPa | 0 mm | - | 113 W/m² | - |
| 1787436935 | 27.78° C | 49% | 1030.8 hPa | 0 mm | - | 123 W/m² | - |
| 1787436631 | 27.78° C | 49% | 1030.9 hPa | 0 mm | - | 132 W/m² | - |
| 1787436331 | 27.78° C | 50% | 1030.8 hPa | 0 mm | - | 142 W/m² | - |
| 1787436026 | 27.78° C | 49% | 1030.9 hPa | 0 mm | - | 148 W/m² | - |
| 1787435721 | 27.78° C | 50% | 1031.1 hPa | 0 mm | - | 130 W/m² | - |
| 1787435417 | 27.78° C | 49% | 1031.3 hPa | 0 mm | - | 120 W/m² | - |
| 1787435114 | 27.78° C | 50% | 1031.3 hPa | 0 mm | - | 124 W/m² | - |
| 1787434809 | 27.78° C | 49% | 1031.3 hPa | 0 mm | - | 120 W/m² | - |
| 1787434505 | 27.78° C | 50% | 1031.6 hPa | 0 mm | - | 103 W/m² | - |
| 1787434201 | 27.78° C | 49% | 1031.3 hPa | 0 mm | - | 84 W/m² | - |
| 1787433896 | 27.22° C | 50% | 1031.6 hPa | 0 mm | - | 73 W/m² | - |
| 1787433590 | 27.22° C | 51% | 1031.5 hPa | 0 mm | - | 69 W/m² | - |
| 1787433286 | 27.22° C | 51% | 1031.2 hPa | 0 mm | - | 68 W/m² | - |
| 1787432983 | 27.22° C | 50% | 1031.5 hPa | 0 mm | - | 68 W/m² | - |
| 1787432679 | 27.78° C | 50% | 1031.6 hPa | 0 mm | - | 68 W/m² | - |
| 1787432378 | 27.78° C | 50% | 1031.6 hPa | 0 mm | - | 66 W/m² | - |
| 1787432068 | 27.78° C | 49% | 1031.8 hPa | 0 mm | - | 65 W/m² | - |
| 1787431767 | 27.78° C | 48% | 1031.7 hPa | 0 mm | - | 67 W/m² | - |
| 1787431462 | 28.33° C | 48% | 1032 hPa | 0 mm | - | 70 W/m² | - |
| 1787431159 | 28.33° C | 48% | 1032.4 hPa | 0 mm | - | 72 W/m² | - |
| 1787430854 | 28.33° C | 47% | 1032.2 hPa | 0 mm | - | 76 W/m² | - |
| 1787430549 | 28.33° C | 47% | 1032.3 hPa | 0 mm | - | 82 W/m² | - |
| 1787430247 | 28.89° C | 46% | 1032.4 hPa | 0 mm | - | 92 W/m² | - |
| 1787429942 | 28.89° C | 46% | 1032.4 hPa | 0 mm | - | 103 W/m² | - |
* Rain latest hour (hover to see other rain measurements)
** Current wind speed in m/s (hover to see current wind gust speed)